• In Russia
  • List of Countries
  • For 7 days
  • Water Temperature
  • Satellite Maps
  • Weather Map
  • Weather Widgets
  • user-avatar
    Login

    Hourly Weather Boma

    Today, 24 February, Saturday

    Time Temperature Precipitation Wind Pressure Humidity
    00:00 +24°C° 0.3 mm 1 mps 698 mmHg 83%
    01:00 +21°C° 0 mm 0 mps 698 mmHg 92%
    02:00 +21°C° 0 mm 0 mps 698 mmHg 92%
    03:00 +21°C° 0 mm 0 mps 698 mmHg 93%
    04:00 +20°C° 0 mm 0 mps 698 mmHg 94%
    05:00 +21°C° 0 mm 0 mps 698 mmHg 93%
    06:00 +21°C° 0 mm 0 mps 698 mmHg 93%
    07:00 +21°C° 0 mm 0 mps 699 mmHg 92%
    08:00 +24°C° 0 mm 0 mps 699 mmHg 77%
    09:00 +28°C° 0 mm 0 mps 700 mmHg 62%
    10:00 +32°C° 0 mm 0 mps 700 mmHg 47%
    11:00 +35°C° 0 mm 1 mps 700 mmHg 40%
    12:00 +37°C° 0 mm 1 mps 699 mmHg 33%
    13:00 +39°C° 0 mm 2 mps 699 mmHg 26%
    14:00 +39°C° 0 mm 1 mps 698 mmHg 26%
    15:00 +39°C° 0 mm 1 mps 697 mmHg 26%
    16:00 +37°C° 0 mm 1 mps 697 mmHg 26%
    17:00 +35°C° 0 mm 1 mps 696 mmHg 30%
    18:00 +33°C° 0 mm 1 mps 696 mmHg 35%
    19:00 +31°C° 0 mm 1 mps 696 mmHg 39%
    20:00 +30°C° 0 mm 1 mps 697 mmHg 42%
    21:00 +29°C° 0 mm 1 mps 698 mmHg 45%
    22:00 +29°C° 0 mm 1 mps 698 mmHg 48%
    23:00 +28°C° 0.4 mm 1 mps 698 mmHg 56%

    Tomorrow, 25 February, Sunday

    Time Temperature Precipitation Wind Pressure Humidity
    00:00 +27°C° 0.4 mm 1 mps 698 mmHg 65%
    01:00 +26°C° 0.4 mm 1 mps 699 mmHg 73%
    02:00 +25°C° 0 mm 1 mps 698 mmHg 79%
    03:00 +25°C° 0 mm 1 mps 698 mmHg 84%
    04:00 +24°C° 0 mm 1 mps 698 mmHg 90%
    05:00 +24°C° 0 mm 1 mps 699 mmHg 91%
    06:00 +24°C° 0 mm 1 mps 699 mmHg 91%
    07:00 +24°C° 0 mm 1 mps 699 mmHg 92%
    08:00 +26°C° 0 mm 1 mps 700 mmHg 81%
    09:00 +28°C° 0 mm 1 mps 701 mmHg 69%
    10:00 +31°C° 0 mm 1 mps 701 mmHg 58%
    11:00 +33°C° 0 mm 1 mps 701 mmHg 47%
    12:00 +36°C° 0 mm 1 mps 700 mmHg 37%
    13:00 +39°C° 0 mm 1 mps 700 mmHg 27%
    14:00 +39°C° 0 mm 1 mps 699 mmHg 26%
    15:00 +39°C° 0 mm 1 mps 698 mmHg 25%
    16:00 +37°C° 0 mm 1 mps 697 mmHg 25%
    17:00 +35°C° 0 mm 1 mps 697 mmHg 29%
    18:00 +32°C° 0 mm 1 mps 697 mmHg 33%
    19:00 +30°C° 0 mm 1 mps 696 mmHg 38%
    20:00 +29°C° 0 mm 1 mps 697 mmHg 41%
    21:00 +28°C° 0 mm 1 mps 698 mmHg 44%
    22:00 +28°C° 0 mm 1 mps 698 mmHg 48%
    23:00 +27°C° 0.3 mm 1 mps 698 mmHg 57%

    Day after tomorrow, 26 February, Monday

    Time Temperature Precipitation Wind Pressure Humidity
    00:00 +26°C° 0.3 mm 1 mps 698 mmHg 67%
    01:00 +25°C° 0.3 mm 2 mps 698 mmHg 77%
    02:00 +25°C° 0.1 mm 2 mps 698 mmHg 81%
    03:00 +25°C° 0.1 mm 2 mps 698 mmHg 85%
    04:00 +24°C° 0.1 mm 2 mps 698 mmHg 89%
    05:00 +24°C° 0 mm 2 mps 698 mmHg 88%
    06:00 +24°C° 0 mm 2 mps 699 mmHg 87%
    07:00 +24°C° 0 mm 1 mps 699 mmHg 86%
    08:00 +25°C° 0.1 mm 1 mps 700 mmHg 82%
    09:00 +26°C° 0.1 mm 1 mps 701 mmHg 78%
    10:00 +27°C° 0.1 mm 1 mps 701 mmHg 74%
    11:00 +29°C° 0 mm 1 mps 701 mmHg 65%
    12:00 +31°C° 0 mm 1 mps 700 mmHg 55%
    13:00 +33°C° 0 mm 1 mps 700 mmHg 46%
    14:00 +34°C° 0 mm 1 mps 699 mmHg 41%
    15:00 +35°C° 0 mm 1 mps 698 mmHg 36%
    16:00 +35°C° 0 mm 1 mps 698 mmHg 32%
    17:00 +33°C° 0 mm 1 mps 698 mmHg 39%
    18:00 +31°C° 0 mm 1 mps 698 mmHg 46%
    19:00 +28°C° 0 mm 1 mps 698 mmHg 53%
    20:00 +27°C° 0 mm 1 mps 698 mmHg 60%
    21:00 +26°C° 0 mm 2 mps 699 mmHg 67%
    22:00 +25°C° 0 mm 2 mps 699 mmHg 75%
    23:00 +25°C° 0 mm 2 mps 699 mmHg 78%

    27 February, Tuesday

    Time Temperature Precipitation Wind Pressure Humidity
    00:00 +24°C° 0 mm 2 mps 699 mmHg 82%
    01:00 +24°C° 0 mm 2 mps 699 mmHg 85%
    02:00 +24°C° 0 mm 2 mps 699 mmHg 86%
    03:00 +24°C° 0 mm 2 mps 699 mmHg 87%
    04:00 +23°C° 0 mm 1 mps 699 mmHg 88%
    05:00 +23°C° 0 mm 1 mps 699 mmHg 87%
    06:00 +24°C° 0 mm 2 mps 700 mmHg 86%
    07:00 +24°C° 0 mm 2 mps 700 mmHg 86%
    08:00 +25°C° 0 mm 2 mps 701 mmHg 79%
    09:00 +26°C° 0 mm 2 mps 701 mmHg 73%
    10:00 +27°C° 0 mm 2 mps 702 mmHg 66%
    11:00 +30°C° 0 mm 1 mps 701 mmHg 59%
    12:00 +32°C° 0 mm 1 mps 701 mmHg 51%
    13:00 +34°C° 0 mm 1 mps 700 mmHg 43%
    14:00 +33°C° 0.1 mm 1 mps 699 mmHg 43%
    15:00 +33°C° 0.1 mm 1 mps 699 mmHg 43%
    16:00 +33°C° 0.1 mm 1 mps 698 mmHg 43%
    17:00 +31°C° 0 mm 1 mps 698 mmHg 49%
    18:00 +29°C° 0 mm 1 mps 698 mmHg 54%
    19:00 +28°C° 0 mm 1 mps 698 mmHg 60%
    20:00 +27°C° 0.1 mm 1 mps 699 mmHg 66%
    21:00 +26°C° 0.1 mm 1 mps 699 mmHg 71%
    22:00 +25°C° 0.1 mm 1 mps 700 mmHg 77%
    23:00 +24°C° 0.6 mm 1 mps 699 mmHg 82%

    28 February, Wednesday

    Time Temperature Precipitation Wind Pressure Humidity
    00:00 +24°C° 0.6 mm 1 mps 699 mmHg 87%
    01:00 +23°C° 0.6 mm 1 mps 699 mmHg 92%
    02:00 +23°C° 0 mm 1 mps 699 mmHg 93%
    03:00 +23°C° 0 mm 1 mps 699 mmHg 94%
    04:00 +23°C° 0 mm 1 mps 699 mmHg 96%
    05:00 +23°C° 0 mm 1 mps 699 mmHg 95%
    06:00 +23°C° 0 mm 1 mps 700 mmHg 95%
    07:00 +23°C° 0 mm 1 mps 700 mmHg 95%
    08:00 +25°C° 0 mm 1 mps 701 mmHg 82%
    09:00 +28°C° 0 mm 1 mps 701 mmHg 69%
    10:00 +30°C° 0 mm 1 mps 702 mmHg 55%
    11:00 +33°C° 0 mm 1 mps 701 mmHg 47%
    12:00 +35°C° 0 mm 1 mps 700 mmHg 40%
    13:00 +37°C° 0 mm 1 mps 699 mmHg 32%
    14:00 +36°C° 0 mm 1 mps 699 mmHg 34%
    15:00 +35°C° 0 mm 1 mps 698 mmHg 37%
    16:00 +31°C° 0 mm 0 mps 697 mmHg 40%
    17:00 +32°C° 0 mm 1 mps 697 mmHg 45%
    18:00 +30°C° 0 mm 1 mps 698 mmHg 50%
    19:00 +28°C° 0 mm 1 mps 698 mmHg 55%
    20:00 +27°C° 0.1 mm 1 mps 698 mmHg 59%
    21:00 +27°C° 0.1 mm 1 mps 699 mmHg 63%
    22:00 +26°C° 0.1 mm 1 mps 699 mmHg 67%
    23:00 +25°C° 0.4 mm 1 mps 699 mmHg 74%

    1 March, Thursday

    Time Temperature Precipitation Wind Pressure Humidity
    00:00 +24°C° 0.4 mm 1 mps 699 mmHg 81%
    01:00 +23°C° 0.4 mm 1 mps 699 mmHg 88%
    02:00 +23°C° 0 mm 1 mps 699 mmHg 91%
    03:00 +23°C° 0 mm 1 mps 698 mmHg 94%
    04:00 +22°C° 0 mm 1 mps 698 mmHg 97%
    05:00 +23°C° 0 mm 1 mps 699 mmHg 96%
    06:00 +23°C° 0 mm 1 mps 699 mmHg 95%
    07:00 +23°C° 0 mm 1 mps 700 mmHg 94%
    08:00 +24°C° 0 mm 1 mps 700 mmHg 87%
    09:00 +25°C° 0 mm 1 mps 701 mmHg 81%
    10:00 +27°C° 0 mm 1 mps 701 mmHg 75%
    11:00 +30°C° 0 mm 1 mps 701 mmHg 61%
    12:00 +33°C° 0 mm 1 mps 700 mmHg 48%
    13:00 +37°C° 0 mm 1 mps 700 mmHg 34%
    14:00 +37°C° 0 mm 1 mps 699 mmHg 32%
    15:00 +37°C° 0 mm 1 mps 698 mmHg 29%
    16:00 +37°C° 0 mm 1 mps 698 mmHg 26%
    17:00 +34°C° 0 mm 1 mps 697 mmHg 32%
    18:00 +32°C° 0 mm 1 mps 697 mmHg 38%
    19:00 +29°C° 0 mm 1 mps 697 mmHg 44%
    20:00 +28°C° 0 mm 1 mps 698 mmHg 49%
    21:00 +27°C° 0 mm 1 mps 698 mmHg 53%
    22:00 +26°C° 0 mm 1 mps 699 mmHg 58%
    23:00 +26°C° 0 mm 1 mps 698 mmHg 64%
    Show more